Regional Weather Roundup
Issued by NWS

Home | Current Version | Previous Version | Graphics & Text | Print | Product List | Glossary On
Versions: 1 2 3 4 5 6 7 8 9 10 11 12 13 14 15 16 17 18 19 20 21 22 23 24 25 26 27 28 29 30 31 32 33 34 35 36 37 38 39 40 41 42 43 44 45 46 47 48 49 50
000
ASUS43 KLOT 230909
RWRIL

ILLINOIS REGIONAL WEATHER ROUNDUP
NATIONAL WEATHER SERVICE CHICAGO/ROMEOVILLE IL
400 AM CDT SUN JUL 23 2017

NOTE: "FAIR" INDICATES FEW OR NO CLOUDS BELOW 12,000 FEET WITH NO
SIGNIFICANT WEATHER AND/OR OBSTRUCTIONS TO VISIBILITY.

* THESE STATIONS ARE NOT UNDER NWS QUALITY CONTROL. THEY ALSO MAY NOT
  REPORT WEATHER SUCH AS PRECIPITATION OR FOG.

ILZ001-002-007-009-015-016-024-231000-
NORTHWEST ILLINOIS

CITY           SKY/WX    TMP DP  RH WIND       PRES   REMARKS
MOLINE         CLOUDY    74  72  93 W5        29.83R
STERLING*      CLOUDY    73  73 100 SW5       29.81S
SAVANNA*       MOCLDY    72  72  99 CALM      29.81S FOG
$$

ILZ003-004-008-010-011-017-018-231000-
NORTH CENTRAL ILLINOIS

CITY           SKY/WX    TMP DP  RH WIND       PRES   REMARKS
ROCKFORD       CLOUDY    74  72  93 CALM      29.80F
FREEPORT*      PTCLDY    72  72  99 CALM      29.82S
ROCHELLE*      CLOUDY    72  72  99 CALM      29.81S FOG
DE KALB*       MOCLDY    74  73  98 W7        29.81S
PERU*          MOCLDY    74  71  92 NW6       29.81R
$$

ILZ005-006-012>014-019>023-231000-
NORTHEAST ILLINOIS

CITY           SKY/WX    TMP DP  RH WIND       PRES   REMARKS
CHICAGO-OHARE  PTCLDY    74  69  85 CALM      29.78F
CHICAGO-MIDWAY PTCLDY    75  70  84 NW3       29.78F
AURORA         PTCLDY    73  73 100 CALM      29.79F
LANSING*       CLOUDY    72  68  88 CALM      29.79R
JOLIET*        CLOUDY    76  73  90 CALM      29.79S
WAUKEGAN       PTCLDY    70  69  97 SW3       29.78S
DUPAGE AIRPORT PTCLDY    71  71 100 CALM      29.78F
WHEELING       CLEAR     73  72  96 CALM      29.79F
MORRIS*        CLOUDY    74  73  96 CALM      29.78S
ROMEOVILLE*    CLOUDY    73  69  87 CALM      29.79S
NORTHERLY ISL    N/A     72  69  90 CALM        N/A
$$

LMZ740>746-231000-
SOUTHERN LAKE MICHIGAN

STATION/POSITION SKY/WX   TEMP    WIND        PRES    VSBY  WAVE
                          AIR SEA DIR/SP/G                  HT/PER
                          (F)     (DEG/KT/KT) (MB)    (MI)  (FT/S)
SOUTHERN BUOY              70 70   CALM  /  2 1008.8          0
WILMETTE HARBOR            72 73  250/  2/  4   N/A           0
HARRISON CRIB              75     220/  1/  1   N/A
BURNHAM HARBOR             72                   N/A
CALUMET HARBOR             73      CALM  /  2 1008.3S
BURNS HARBOR               74     330/  1/  3 1009.1S
MICHIGAN CITY              73     280/  1/  1   N/A
MICHIGAN CITY 6N           74 75  320/  2/  4   N/A           0
ST. JOSEPH                 72 74   CALM  /  2 1008.5          1
$$

ILZ025>027-034>036-040-047-049-050-058-095>099-231000-
WEST-CENTRAL ILLINOIS

CITY           SKY/WX    TMP DP  RH WIND       PRES   REMARKS
QUINCY         CLOUDY    76  67  73 W16G25    29.92R
GALESBURG*     CLOUDY    75  75  99 SW7       29.86R
MACOMB*        CLOUDY    75  75  98 W6        29.88R FOG
JACKSONVILLE*  CLOUDY    78  77  96 W10       29.85S HX  80
PITTSFIELD*    CLOUDY    75  68  78 W14G21    29.92R
$$

ILZ028>032-037-038-041>044-048-051>054-059>061-231000-
CENTRAL ILLINOIS

CITY           SKY/WX    TMP DP  RH WIND       PRES   REMARKS
PONTIAC        CLOUDY    76  75  98 NW5       29.82R
BLOOMINGTON    CLOUDY    76  74  93 W8        29.82R
DECATUR        MOCLDY    78  76  93 N5        29.79R HX  81
PEORIA         CLOUDY    77  76  96 W3        29.83R
LACON*         MOCLDY    75  75 100 CALM      29.80S
LINCOLN*       CLOUDY    77  77  99 NW3       29.81R
SPRINGFIELD    CLOUDY    79  78  97 NW8       29.81S HX  83
TAYLORVILLE    CLOUDY    76  76 100 NW3       29.80S
$$

ILZ033-039-045-046-055>057-062-063-231000-
EAST-CENTRAL ILLINOIS

CITY           SKY/WX    TMP DP  RH WIND       PRES   REMARKS
CHAMPAIGN      MOCLDY    76  74  93 W5        29.79R FOG
RANTOUL*       PTCLDY    75  75  99 NW5       29.79R
MATTOON        MOCLDY    75  73  93 S6        29.78R
PARIS*         CLEAR     71  71 100 CALM      29.79R THUNDER
$$

ILZ079-100>102-231000-
SOUTHWEST ILLINOIS

CITY           SKY/WX    TMP DP  RH WIND       PRES   REMARKS
ALTON          LGT RAIN  70  69  98 W15G25    29.89R
BELLEVILLE     TSTM      74  71  91 NW36G45   29.85R VSB 3/4
CAHOKIA*       CLOUDY    75  68  78 NW29G40   29.86R THUNDER
SPARTA*        CLEAR     84  72  66 W12       29.78F HX  89
$$

ILZ064>066-069>071-074>076-080>082-084>086-088>090-092>094-231000-
SOUTH-CENTRAL ILLINOIS

CITY           SKY/WX    TMP DP  RH WIND       PRES   REMARKS
CARBONDALE     CLEAR     82  76  81 SW13      29.78F HX  89
CAIRO*         CLEAR     80  75  85 SW8       29.83S HX  85
EFFINGHAM*     MOCLDY    78  76  95 CALM      29.78F HX  80
MARION         CLOUDY    84  75  74 SW8       29.80F HX  92
MT. VERNON     CLOUDY    80  75  84 S5        29.77F HX  85
CENTRALIA*     MOCLDY    83  74  75 SW5       29.76F HX  90
SALEM*         PTCLDY    82  73  73 NW3       29.78S HX  87
METROPOLIS*    CLEAR     81  75  81 SW5       29.84S HX  87
$$

ILZ067-068-072-073-078-083-087-091-231000-
SOUTHEAST ILLINOIS

CITY           SKY/WX    TMP DP  RH WIND       PRES   REMARKS
LAWRENCEVILLE  CLOUDY    73  72  96 SE6       29.80R
FLORA*         MOCLDY    80  76  86 CALM      29.77F HX  86
FAIRFIELD*     CLOUDY    82  75  80 SW3       29.76F HX  88
HARRISBURG*    MOCLDY    80  77  91 SW6       29.81S HX  85
ROBINSON*      CLOUDY    71  71  99 S3        29.79R
CARMI*         CLOUDY    82  75  81 SW10      29.77F HX  88
$$

ABBREVIATIONS USED IN REMARKS
   TC - TEMPERATURE IN CELSIUS
  WCI - WIND CHILL INDEX
   HX - HEAT INDEX
  VSB - VISIBILITY
$$




USA.gov is the U.S. government's official web portal to all federal, state and local government web resources and services.